Location: Gro� Glienicke
(52.4675°N, 13.1079°E)
Time: 18:09:28
(UTC+00:00)

GP-B - Pass Details

Date: 06 July 2020
Orbit: 631 x 635 km, 89.8° (Epoch: 13 August)

Event Time Altitude Azimuth Distance (km) Brightness Sun altitude
Rises 22:23:45 0° 2° (N) 2,946 8.2 -14.2°
Reaches altitude 10° 22:25:59 10° 4° (N) 2,032 7.0 -14.3°
Maximum altitude 22:30:28 77° 90° (E) 656 3.1 -14.4°
Enters shadow 22:33:06 24° 174° (S) 1,312 4.1 -14.5°
